Tracking 20710 objects as of 30-May-2020
HD Live streaming from Space Station
objects crossing your sky now

FENGYUN 1C DEB

Track FENGYUN 1C DEB now!
10-day predictions


NORAD ID: 32433
Int'l Code: 1999-025DAV
Perigee: 597.1 km
Apogee: 991.7 km
Inclination: 98.2 °
Period: 100.6 minutes
Semi major axis: 7165 km
RCS: 0.0139 m2 (small)
Launch date: May 10, 1999
Source: People's Republic of China (PRC)
Launch site: Taiyaun Space Center, China (TSC)

Note: This is SATELLITE DEBRIS
aabbcc
Your satellite tracking list
Your tracking list is empty




NASA's NSSDC Master Catalog

Two Line Element Set (TLE):
1 32433U 99025DAV 20150.32557440  .00001814  00000-0  46359-3 0  9992
2 32433  98.1986 162.1460 0275352 198.0012 161.1272 14.31352823644694
Source of the keplerian elements: AFSPC